Tracking 21094 objects as of 12-Aug-2020
HD Live streaming from Space Station
objects crossing your sky now
Track the most recent launched group of Starlink satellites

GAOFEN 3 DEB

Track GAOFEN 3 DEB now!
10-day predictions


NORAD ID: 42678
Int'l Code: 2016-049C
Perigee: 741.8 km
Apogee: 754.2 km
Inclination: 98.4 °
Period: 99.6 minutes
Semi major axis: 7118 km
RCS: Unknown
Launch date: August 9, 2016
Source: People's Republic of China (PRC)
Launch site: Jiuquan Satellite Launch Center, China (JSC)

Note: This is SATELLITE DEBRIS
aabbcc
Your satellite tracking list
Your tracking list is empty




NASA's NSSDC Master Catalog

Two Line Element Set (TLE):
1 42678U 16049C   20224.84120370 -.00000005 +00000-0 +10951-4 0  9998
2 42678 098.3883 237.3813 0008687 003.8562 356.2695 14.45359973205359
Source of the keplerian elements: AFSPC